Weather History for Sparta, TN

Change the Weather History Date:

Friday, February 28, 2014

  Actual Average (KCSV) Record (KCSV)
Temperature  
Mean Temperature 32 °F 43 °F  
Max Temperature 53 °F 52 °F 72 °F (1976)
Min Temperature 12 °F 33 °F 8 °F (2002)
Degree Days  
Heating Degree Days 32    
Month to date heating degree days  
Since 1 July heating degree days  
Cooling Degree Days 0    
Month to date cooling degree days  
Year to date cooling degree days  
Moisture  
Dew Point 12 °F    
Average Humidity 44    
Maximum Humidity 92    
Minimum Humidity 15    
Precipitation  
Precipitation 0.00 in 0.16 in 1.49 in (2011)
Month to date precipitation 4.46  
Year to date precipitation 9.22  
Sea Level Pressure  
Sea Level Pressure 30.08 in    
Wind  
Wind Speed 2 mph (South)    
Max Wind Speed 17 mph    
Max Gust Speed -    
Visibility 10 miles    
Events      
T = Trace of Precipitation, MM = Missing Value Source: NWS Daily Summary

Daily Weather History Graph

Daily Weather History Graph

Search for Another Location

Airport:

Trip Planner

Search our weather history database for the weather conditions in past years. The results will help you decide how hot, cold, wet, or windy it might be!

Date:

Astronomy

Feb. 28, 2014 Rise Set
Actual Time 6:13 AM CST 5:36 PM CST
Civil Twilight 5:47 AM CST 6:01 PM CST
Nautical Twilight 5:18 AM CST 6:31 PM CST
Astronomical Twilight 4:48 AM CST 7:01 PM CST
Moon 5:27 AM CST (2/28) 5:11 PM CST (2/28)
Length of Visible Light 12h 14m
Length of Day
11h 22m
Waning Crescent, 1% of the Moon is Illuminated
Feb 28
Waning Crescent
Mar 1
New
Mar 8
First Quarter
Mar 16
Full
Mar 23
Last Quarter

Hourly Weather History & Observations

Time (CST) Temp. Windchill Dew Point Humidity Pressure Visibility Wind Dir Wind Speed Gust Speed Precip Events Conditions
12:55 AM 17.6 °F - 10.4 °F 73% 30.07 in 10.0 mi Calm Calm - N/A   Clear
1:15 AM 15.8 °F - 10.4 °F 79% 30.06 in 10.0 mi Calm Calm - N/A   Clear
1:35 AM 15.8 °F - 10.4 °F 79% 30.06 in 10.0 mi Calm Calm - N/A   Clear
1:55 AM 15.8 °F - 12.2 °F 86% 30.06 in 10.0 mi Calm Calm - N/A   Clear
2:15 AM 15.8 °F - 10.4 °F 79% 30.05 in 10.0 mi Calm Calm - N/A   Clear
2:35 AM 15.8 °F - 8.6 °F 73% 30.06 in 10.0 mi Calm Calm - N/A   Clear
2:55 AM 14.0 °F - 8.6 °F 79% 30.06 in 10.0 mi Calm Calm - N/A   Clear
3:15 AM 14.0 °F - 10.4 °F 86% 30.07 in 10.0 mi Calm Calm - N/A   Clear
3:35 AM 15.8 °F - 10.4 °F 79% 30.07 in 10.0 mi Calm Calm - N/A   Clear
3:55 AM 14.0 °F - 10.4 °F 86% 30.07 in 10.0 mi Calm Calm - N/A   Clear
4:15 AM 12.2 °F - 8.6 °F 85% 30.08 in 10.0 mi Calm Calm - N/A   Clear
4:35 AM 14.0 °F - 10.4 °F 86% 30.09 in 10.0 mi Calm Calm - N/A   Clear
4:55 AM 12.2 °F - 10.4 °F 92% 30.09 in 10.0 mi Calm Calm - N/A   Clear
5:15 AM 15.8 °F - 12.2 °F 86% 30.10 in 10.0 mi Calm Calm - N/A   Clear
5:35 AM 12.2 °F - 10.4 °F 92% 30.11 in 10.0 mi Calm Calm - N/A   Clear
5:55 AM 17.6 °F - 12.2 °F 79% 30.12 in 10.0 mi Calm Calm - N/A   Clear
6:15 AM 17.6 °F - 12.2 °F 79% 30.13 in 10.0 mi Calm Calm - N/A   Clear
6:35 AM 21.2 °F - 12.2 °F 68% 30.14 in 10.0 mi Calm Calm - N/A   Clear
6:55 AM 24.8 °F - 12.2 °F 59% 30.14 in 10.0 mi Calm Calm - N/A   Clear
7:15 AM 24.8 °F - 12.2 °F 59% 30.14 in 10.0 mi Calm Calm - N/A   Clear
7:35 AM 28.4 °F - 12.2 °F 51% 30.15 in 10.0 mi Calm Calm - N/A   Clear
7:55 AM 28.4 °F - 10.4 °F 47% 30.15 in 10.0 mi Calm Calm - N/A   Clear
8:15 AM 30.2 °F - 12.2 °F 47% 30.15 in 10.0 mi Calm Calm - N/A   Clear
8:35 AM 33.8 °F 30.8 °F 12.2 °F 41% 30.15 in 10.0 mi ESE 3.5 mph - N/A   Clear
8:55 AM 35.6 °F - 10.4 °F 35% 30.14 in 10.0 mi Calm Calm - N/A   Clear
9:15 AM 37.4 °F - 10.4 °F 33% 30.14 in 10.0 mi Calm Calm - N/A   Clear
9:35 AM 37.4 °F 34.9 °F 10.4 °F 33% 30.13 in 10.0 mi ESE 3.5 mph - N/A   Clear
9:55 AM 39.2 °F 35.9 °F 8.6 °F 28% 30.12 in 10.0 mi ESE 4.6 mph - N/A   Clear
10:15 AM 42.8 °F 40.1 °F 6.8 °F 23% 30.12 in 10.0 mi SSE 4.6 mph - N/A   Clear
10:35 AM 44.6 °F 43.1 °F 6.8 °F 21% 30.11 in 10.0 mi Variable 3.5 mph - N/A   Clear
10:55 AM 46.4 °F - 8.6 °F 22% 30.10 in 10.0 mi Calm Calm - N/A   Clear
11:15 AM 46.4 °F 43.5 °F 6.8 °F 20% 30.09 in 10.0 mi Variable 5.8 mph - N/A   Clear
11:35 AM 46.4 °F - 5.0 °F 18% 30.07 in 10.0 mi Calm Calm - N/A   Clear
11:55 AM 50.0 °F - 3.2 °F 15% 30.07 in 10.0 mi SW 6.9 mph - N/A   Clear
12:15 PM 50.0 °F - 6.8 °F 17% 30.06 in 10.0 mi SSW 5.8 mph - N/A   Clear
12:35 PM 51.8 °F - 6.8 °F 16% 30.05 in 10.0 mi SSW 5.8 mph - N/A   Clear
12:55 PM 51.8 °F - 6.8 °F 16% 30.04 in 10.0 mi South 4.6 mph - N/A   Clear
1:15 PM 51.8 °F - 6.8 °F 16% 30.04 in 10.0 mi South 6.9 mph - N/A   Clear
1:35 PM 51.8 °F - 6.8 °F 16% 30.04 in 10.0 mi South 8.1 mph - N/A   Clear
1:55 PM 51.8 °F - 6.8 °F 16% 30.03 in 10.0 mi South 6.9 mph - N/A   Clear
2:15 PM 53.6 °F - 6.8 °F 15% 30.03 in 10.0 mi SSW 9.2 mph - N/A   Clear
2:35 PM 51.8 °F - 6.8 °F 16% 30.03 in 10.0 mi SSE 8.1 mph - N/A   Clear
2:55 PM 51.8 °F - 8.6 °F 18% 30.02 in 10.0 mi SSE 6.9 mph - N/A   Clear
3:15 PM 51.8 °F - 10.4 °F 19% 30.02 in 10.0 mi SSE 8.1 mph - N/A   Clear
3:35 PM 51.8 °F - 10.4 °F 19% 30.02 in 10.0 mi SSE 6.9 mph - N/A   Scattered Clouds
3:55 PM 51.8 °F - 10.4 °F 19% 30.02 in 10.0 mi SSE 8.1 mph - N/A   Partly Cloudy
4:15 PM 48.2 °F - 10.4 °F 22% 30.02 in 10.0 mi SSE 8.1 mph - N/A   Scattered Clouds
4:35 PM 48.2 °F - 12.2 °F 24% 30.02 in 10.0 mi South 8.1 mph - N/A   Overcast
4:55 PM 48.2 °F - 12.2 °F 24% 30.03 in 10.0 mi South 5.8 mph - N/A   Mostly Cloudy
5:15 PM 46.4 °F 42.9 °F 12.2 °F 25% 30.04 in 10.0 mi South 6.9 mph - N/A   Mostly Cloudy
5:35 PM 46.4 °F 42.4 °F 12.2 °F 25% 30.05 in 10.0 mi South 8.1 mph - N/A   Overcast
5:55 PM 46.4 °F 41.9 °F 12.2 °F 25% 30.04 in 10.0 mi South 9.2 mph - N/A   Overcast
6:15 PM 46.4 °F 43.5 °F 14.0 °F 27% 30.03 in 10.0 mi SSE 5.8 mph - N/A   Mostly Cloudy
6:35 PM 44.6 °F 42.2 °F 12.2 °F 27% 30.03 in 10.0 mi South 4.6 mph - N/A   Mostly Cloudy
6:55 PM 44.6 °F 43.1 °F 14.0 °F 29% 30.03 in 10.0 mi South 3.5 mph - N/A   Scattered Clouds
7:15 PM 44.6 °F 43.1 °F 14.0 °F 29% 30.03 in 10.0 mi South 3.5 mph - N/A   Mostly Cloudy
7:35 PM 44.6 °F 41.4 °F 14.0 °F 29% 30.04 in 10.0 mi South 5.8 mph - N/A   Overcast
7:55 PM 44.6 °F 42.2 °F 15.8 °F 31% 30.05 in 10.0 mi SSW 4.6 mph - N/A   Overcast
8:15 PM 44.6 °F 43.1 °F 17.6 °F 34% 30.07 in 10.0 mi SSW 3.5 mph - N/A   Overcast
8:35 PM 44.6 °F - 17.6 °F 34% 30.08 in 10.0 mi Calm Calm - N/A   Overcast
8:55 PM 44.6 °F 43.1 °F 15.8 °F 31% 30.08 in 10.0 mi South 3.5 mph - N/A   Mostly Cloudy
9:15 PM 42.8 °F 41.1 °F 17.6 °F 36% 30.08 in 10.0 mi South 3.5 mph - N/A   Scattered Clouds
9:35 PM 41.0 °F 39.0 °F 17.6 °F 39% 30.09 in 10.0 mi South 3.5 mph - N/A   Partly Cloudy
9:55 PM 41.0 °F 38.0 °F 19.4 °F 42% 30.11 in 10.0 mi SW 4.6 mph - N/A   Clear
10:15 PM 44.6 °F 37.2 °F 21.2 °F 39% 30.12 in 10.0 mi SSW 17.3 mph - N/A   Clear
10:35 PM 42.8 °F 39.3 °F 28.4 °F 57% 30.13 in 10.0 mi SSW 5.8 mph - N/A   Unknown
10:55 PM 42.8 °F 39.3 °F 28.4 °F 57% 30.13 in 10.0 mi South 5.8 mph - N/A   Partly Cloudy
11:15 PM 41.0 °F 39.0 °F 30.2 °F 65% 30.14 in 10.0 mi SSW 3.5 mph - N/A   Scattered Clouds
11:35 PM 39.2 °F 37.0 °F 30.2 °F 70% 30.13 in 10.0 mi South 3.5 mph - N/A   Partly Cloudy
11:55 PM 39.2 °F - 30.2 °F 70% 30.14 in 10.0 mi Calm Calm - N/A   Mostly Cloudy